www.pogodaiklimat.ru

Погода и климат >> Архив погоды >> Мексика >> Акапулько


АРХИВ ПОГОДЫ в Акапулько

Время (UTC), дата Ветер
(напр.,м/с)
 
Видим.   Явления Облачность Т
(С)
Тd
(С)
f
(%)
Тe
(С)
Тes
(С)
Комфортность P
(гПа)
Po
(гПа)
Тmin
(С)
Tmax
(С)
R
(мм)
R24
(мм)
S
(см)
06 13.06 З 1 10 км 10/4 900 м
[Cu med, cong Ac As]
+29.0 +25.2 80 +42 +42 опасность
перегрева
1013.7 1013.4 +26.9 +35.0
09 13.06 Ю 1 10 км 5/4 900 м
[Cu Sc Ac und]
+27.3 +24.7 86 +39 +39 очень
душно
1011.8 1011.4
12 13.06 СЗ 1 15 км 9/6 870 м
[Cu Sc Ac und]
+27.2 +25.8 92 +40 +40 очень
душно
1013.0 1012.7 +26.7 +35.0
15 13.06 ЮВ 1 20 км 8/4 840 м
[Cu med, cong Ac und]
+29.8 +26.2 81 +45 +48 опасность
перегрева
1013.9 1013.5
18 13.06 ЮВ 2 20 км 6/1 840 м
[Cu med, cong Ac und]
+33.4 +26.5 67 +50 +62 опасность
перегрева
1013.7 1013.2 +26.7 +34.4
21 13.06 З 3 20 км 8/1 900 м
[Cu med, cong Ac und]
+33.6 +26.5 66 +50 +55 опасность
перегрева
1011.3 1010.8
00 14.06 З 2 20 км 8/3 840 м
[Cu med, cong Cs]
+31.8 +26.0 71 +47 +48 опасность
перегрева
1011.4 1010.9 +26.7 +34.9
03 14.06 ЮЗ 1 10 км 9/4 840 м
[Cu med, cong Cs]
+29.5 +25.6 80 +44 +44 опасность
перегрева
1013.2 1012.9
06 14.06 В 1 10 км 8/3 840 м
[Cu med, cong Cs]
+27.3 +25.3 89 +40 +40 очень
душно
1014.6 1014.3 +26.7 +34.9
09 14.06 СЗ 1 10 км слаб. морось 9/5 840 м
[Cu med, cong Cs]
+26.9 +25.8 94 +40 +40 очень
душно
1012.7 1012.3 0.2
12 14.06 С 1 15 км 10/8 840 м
[Cu Sc Ac trans]
+27.0 +25.9 94 +40 +40 очень
душно
1013.2 1013.0 +26.1 +34.9
15 14.06 СВ 1 19 км 8/5 840 м
[Cu Sc Ac und]
+29.2 +25.4 80 +43 +46 опасность
перегрева
1013.9 1013.5 0.0
18 14.06 ЮЗ 2 20 км 8/4 870 м
[Cu Sc Ac und]
+31.9 +26.1 71 +47 +54 опасность
перегрева
1013.7 1013.4 +26.1 +33.9 0.0
21 14.06 З 3 20 км 5/3 870 м
[Cu med, cong Ac lent]
+33.0 +26.8 70 +51 +58 опасность
перегрева
1012.3 1011.9
00 15.06 ЮЗ 4 19 км 8/4 870 м
[Cu med, cong As op]
+31.9 +25.6 69 +46 +47 опасность
перегрева
1012.3 1011.8 +26.1 +35.2
03 15.06 ЮВ 2 10 км слаб. дождь 10/5 600 м
[Cu Sc Ac trans]
+27.2 +25.8 92 1014.1 13
09 15.06 Ю 2 10 км 6/6 720 м
[Cu Sc]
+25.0 +24.4 96 +35 +35 очень
душно
1012.5 1012.0
12 15.06 В 2 10 км 6/6 750 м
[Cu Sc]
+25.4 +24.6 95 +36 +36 очень
душно
1013.0 1012.4 +24.8 +35.2
15 15.06 ЮЗ 1 20 км 6/6 840 м
[Frnb]
+28.6 +25.7 84 +42 +46 опасность
перегрева
1013.7 1013.3
18 15.06 ЮЗ 2 18 км 9/9 840 м
[St]
+27.4 +26.3 94 +42 +44 опасность
перегрева
1013.7 1013.2 +24.8 +32.6
21 15.06 З 3 20 км 4/4 900 м
[Cu med, cong]
+32.4 +25.7 68 +48 +55 опасность
перегрева
1011.6 1011.2
00 16.06 З 2 20 км 6/6 840 м
[St]
+32.4 +25.7 68 +48 +48 опасность
перегрева
1010.7 1010.3 +24.8 +34.0
03 16.06 В 2 10 км 9/4 840 м
[Cu med, cong Ac trans Cs]
+28.4 +25.6 85 +42 +42 опасность
перегрева
1011.1 1010.7
06 16.06 ЮЗ 1 10 км 8/4 840 м
[Cu med, cong Ac trans]
+27.2 +25.7 92 +40 +40 очень
душно
1012.3 1012.0 +24.8 +34.0
09 16.06 СВ 1 10 км 6/3 840 м
[Cu med, cong Cs]
+26.8 +25.4 92 +39 +39 очень
душно
1011.1 1010.8
12 16.06 С 1 15 км 9/8 840 м
[Cu Sc Ac trans]
+26.4 +24.8 91 +38 +38 очень
душно
1010.9 1010.4 +25.8 +34.0
15 16.06 ЮЗ 2 20 км 8/8 800 м
[Cu Sc]
+28.0 +25.5 86 +41 +43 опасность
перегрева
1013.2 1012.9
18 16.06 В 2 20 км 6/6 720 м
[Cu Sc]
+33.5 +25.9 65 +49 +58 опасность
перегрева
1013.0 1012.5 +25.8 +35.5
21 16.06 Ю 2 20 км 6/6 700 м
[Cu Sc]
+34.2 +26.5 64 +51 +57 опасность
перегрева
1011.6 1011.1
00 17.06 З 2 20 км 6/6 750 м
[Cu Sc]
+31.8 +25.1 68 +46 +46 опасность
перегрева
1010.9 1010.5 +25.8 +35.5
03 17.06 С 1 10 км 6/6 900 м
[Cu med, cong]
+28.7 +26.1 86 +43 +43 опасность
перегрева
1010.7 1010.3
06 17.06 С 1 10 км 6/6 900 м
[St]
+27.8 +26.1 90 +42 +42 опасность
перегрева
1011.6 1011.1 +35.5
09 17.06 СЗ 1 10 км 6/6 900 м
[St]
+26.8 +25.1 90 +39 +39 очень
душно
1010.4 1010.0
12 17.06 С 1 18 км 3/3 900 м
[Cu med, cong]
+25.6 +23.6 89 +35 +35 очень
душно
1010.6 1010.3 +25.2 +35.5
15 17.06 СВ 2 20 км 1/0 2000 м
[Ac trans]
+31.1 +24.7 69 +44 +52 опасность
перегрева
1011.8 1011.4
18 17.06 ЮЗ 2 20 км 4/1 870 м
[Cu med, cong Ac trans]
+34.0 +24.4 57 +46 +62 опасность
перегрева
1011.6 1011.3 +25.2 +35.3
21 17.06 ЮЗ 3 20 км 1/1 900 м
[Cu med, cong]
+34.4 +25.7 61 +50 +61 опасность
перегрева
1009.5 1009.1
00 18.06 ЮЗ 2 20 км 1/1 900 м
[Cu med, cong]
+33.9 +25.1 60 +48 +49 опасность
перегрева
1009.0 1008.6 +25.2 +35.4
03 18.06 З 1 10 км 8/8 600 м
[Cu med, cong]
+29.8 +25.9 80 +45 +45 опасность
перегрева
1011.3 1010.8
06 18.06 Ю 1 10 км 8/8 900 м
[Cu hum]
+29.2 +26.1 83 +44 +44 опасность
перегрева
1012.5 1011.9 +25.2 +35.4
09 18.06 СЗ 1 10 км 4/4 900 м
[Cu hum]
+28.8 +25.7 83 +43 +43 опасность
перегрева
1011.6 1011.1
12 18.06 СЗ 1 18 км 3/3 900 м
[Cu hum]
+27.2 +25.2 89 +39 +39 очень
душно
1011.8 1011.4 +26.8 +35.4
15 18.06 С 1 20 км 4/0
[Cs]
+31.6 +26.0 72 +47 +56 опасность
перегрева
1011.6 1011.1
18 18.06 Ю 2 20 км 6/1 840 м
[Cu med, cong Cs]
+35.8 +25.2 54 +49 +66 опасность
перегрева
1011.8 1011.4 +26.8 +36.2
21 18.06 ЮЗ 3 20 км 4/1 840 м
[Cu med, cong Cs]
+35.2 +26.7 62 +53 +64 опасность
перегрева
1010.4 1009.9
00 19.06 З 2 20 км 5/1 840 м
[Cu med, cong Cs]
+33.0 +26.1 67 +49 +50 опасность
перегрева
1010.4 1009.9 +26.8 +36.2
03 19.06 З 1 10 км 3/1 900 м
[Cu med, cong Cs]
+29.8 +25.8 79 +44 +44 опасность
перегрева
1012.5 1012.1
06 19.06 С 1 10 км 3/3 900 м
[Cu med, cong]
+28.4 +26.0 87 +43 +43 опасность
перегрева
1014.1 1013.7 +26.8 +36.2
09 19.06 СЗ 1 10 км 4/4 900 м
[Cu med, cong]
+27.3 +25.8 92 +41 +41 опасность
перегрева
1011.6 1011.5
12 19.06 С 1 18 км 3/3 900 м
[Cu med, cong]
+26.5 +24.9 91 +38 +38 очень
душно
1011.3 1011.0 +26.1 +36.2
15 19.06 СЗ 1 20 км 3/0
[Cs]
+31.4 +25.5 71 +46 +55 опасность
перегрева
1012.0 1011.6
18 19.06 З 2 20 км 1/0
[Cs]
+33.8 +26.1 64 +50 +71 опасность
перегрева
1011.3 1010.9 +26.1 +35.0
21 19.06 З 3 20 км 1/1 900 м
[Cu med, cong]
+34.2 +25.3 60 +48 +60 опасность
перегрева
1009.5 1009.1
00 20.06 З 3 20 км 6/3 900 м
[Cu med, cong Ac trans]
+32.8 +25.9 67 +48 +49 опасность
перегрева
1009.0 1008.5 +26.1 +35.4
03 20.06 З 2 10 км 8/3 900 м
[Cu med, cong Ac und Cs]
+30.1 +26.2 80 +46 +46 опасность
перегрева
1010.0 1009.6

 

Местоположение метеостанции Акапулько (Мексика): широта 16.83 долгота -99.93 высота над уровнем моря 3 м.

В архиве по умолчанию представлена погода в Акапулько за последнюю неделю. Архивные данные за месяц целиком и за предыдущие месяцы, начиная с января 2011 года, Вы можете получить, выбрав интересующий диапазон дат из раскрывающегося списка и нажав кнопку "Ввод!".


*Определитесь, кто Вы:
робот инопланетянин человек

Внимание! Время в таблицах - всемирное. Для получения местного времени необходимо прибавить поправку, которая равна -6 ч.

Смотрите также архив погоды в соседних городах и на ближайших метеорологических станциях:

Погода в Чильпансинго (Мексика) (92 км)
Погода в Сакатепеке (Мексика) (223 км)
Погода в Куэрнаваке (Мексика) (240 км)
Погода в Уахуапан-де-Леоне (Мексика) (253 км)
Погода в Толуке (Мексика) (274 км)
Погода в Институте Географии (Мексика) (288 км)
Погода в Мехико (Мексика) (297 км)
Погода в Пуэбле (Мексика) (310 км)
Погода в Тлашкала аэропорту (Мексика) (329 км)
Погода в Тлашкале (Мексика) (329 км)

Пояснения к столбцам:

Ветер - указаны скорость ветра в м/с - средняя за 10 мин, порывы в срок и между сроками (в фигурных скобках) и направление, откуда дует ветер: С - северный, СВ - северо-восточный, В - восточный, ЮВ - юго-восточный, Ю - южный, ЮЗ - юго-западный, З - западный, СЗ - северо-западный.
Видимость - горизонтальная дальность видимости в метрах или километрах. При видимости от 1 до 10 км при отсутствии осадков обычно наблюдается дымка, при ухудшении видимости до 1 км и менее - туман. В сухую погоду видимость может ухудшаться дымом, пылью или мглою.
Явления - указаны атмосферные явления, наблюдавшиеся в срок или в последний час перед сроком; фигурными скобками обозначены явления, наблюдавшиеся между сроками (за 1-3 часа до срока); квадратными скобками обозначены град или гололедные отложения с указанием их диаметра в мм.
Облачность - указаны через наклонную черту общая и нижняя облачность в баллах и высота нижней границы облаков в метрах; квадратными скобками обозначены формы облаков: Ci - перистые, Cs - перисто-слоистые, Cc - перисто-кучевые, Ac - высококучевые, As - высокослоистые, Sc - слоисто-кучевые, Ns - слоисто-дождевые, Cu - кучевые, Cb - кучево-дождевые. Подробнее классификацию облаков см. в Атласе облаков (PDF).
T - Температура воздуха - температура, измеренная на высоте 2 м над землей.
Td - Температура точки росы - температура, при понижении до которой содержащийся в воздухе водяной пар достигнет насыщения.
f - Относительная влажность воздуха - влажноcть воздуха, измеренная на высоте 2 м над землей.
Te - Эффективная температура - температура, которую ощущает одетый по сезону человек в тени. Характеристика душности погоды. При расчете учитывается влияние влажности воздуха и скорости ветра на теплоощущения человека.
Tes - Эффективная температура на солнце - температура, которую ощущает человек, с поправкой на солнечный нагрев. Характеристика знойности погоды. Зависит от высоты солнца над горизонтом, облачности и скорости ветра. Ночью, в пасмурную погоду, а также при ветре 12 м/с и более поправка равна нулю.
P - Атмосферное давление - приведенное к уровню моря атмосферное давление.
Po - Атмосферное давление - измеренное на уровне метеостанции атмосферное давление.
Tmin - Минимальная температура - минимум температуры воздуха на высоте 2 м над землей.
Tmax - Максимальная температура - максимум температуры воздуха на высоте 2 м над землей.
R - Количество осадков - Количество выпавших осадков за период времени, мм. При наведении курсора мыши на число - период времени, за который выпало указанное количество осадков.
R24 - Количество осадков - Количество выпавших осадков за 24 часа, мм.
S - Снежный покров - Высота снежного покрова, см. При наведении курсора мыши на число - состояние снежного покрова и степень покрытия местности в баллах.